Regional Weather Roundup
Issued by NWS

Home | Current Version | Previous Version | Graphics & Text | Print | Product List | Glossary On
Versions: 1 2 3 4 5 6 7 8 9 10 11 12 13 14 15 16 17 18 19 20 21 22 23 24 25 26 27 28 29 30 31 32 33 34 35 36 37 38 39 40 41 42 43 44 45 46 47 48 49 50
575
ASUS43 KFSD 240310
RWRSD

WEATHER ROUNDUP FOR SOUTH DAKOTA
NATIONAL WEATHER SERVICE SIOUX FALLS SD
900 PM CST MON JAN 23 2017

NOTE: "FAIR" INDICATES FEW OR NO CLOUDS BELOW 12,000 FEET WITH NO
SIGNIFICANT WEATHER AND/OR OBSTRUCTIONS TO VISIBILITY.


SDZ001>005-009-010-012>017-240400-
NORTHWEST AND NORTH CENTRAL SOUTH DAKOTA

CITY           SKY/WX    TMP DP  RH WIND       PRES   REMARKS
BUFFALO          N/A     25  21  85 NE3       29.69R
FAITH            N/A     26  24  92 NE9       29.76R WCI  17
MOBRIDGE       LGT SNOW  29  24  82 MISG      29.78R
$$

SDZ012>016-024>037-041>051-057-063-072>074-240400-
SOUTHWEST AND SOUTH CENTRAL SOUTH DAKOTA

CITY           SKY/WX    TMP DP  RH WIND       PRES   REMARKS
RAPID CTY ARPT CLOUDY    23  21  92 N15       29.72R FOG     WCI  10
PIERRE         CLOUDY    29  26  89 E9        29.76R WCI  20
CUSTER         CLOUDY    25  20  81 NE7       29.58S WCI  17
PHILIP         CLOUDY    28  28 100 NE7       29.74R FOG     WCI  21
PINE RIDGE     FOG       26  26 100 N9        29.68S VSB 1/4 WCI  17
SPEARFISH      FOG       19  19 100 W5        29.71S VSB<1/4 WCI  13
WINNER         CLOUDY    32  28  85 SE13      29.71S WCI  22
$$

SDZ004>011-016>023-039-040-240400-
NORTHEAST SOUTH DAKOTA

CITY           SKY/WX    TMP DP  RH WIND       PRES   REMARKS
ABERDEEN       CLOUDY    29  26  89 E3        29.81F FOG
WATERTOWN      CLOUDY    28  25  88 SE7       29.79R WCI  21
BROOKINGS      CLOUDY    30  27  88 E7        29.79F WCI  23
SISSETON         N/A     31  29  92 S3        29.82S
$$

SDZ017-020-022-023-036>040-048>070-240400-
SOUTHEAST SOUTH DAKOTA

CITY           SKY/WX    TMP DP  RH WIND       PRES   REMARKS
SIOUX FALLS    CLOUDY    31  29  92 SE7       29.82S WCI  24
HURON          CLOUDY    31  29  92 SE6       29.80S WCI  25
CHAMBERLAIN    CLOUDY    32  30  93 E10       29.76R WCI  23
MITCHELL       CLOUDY    32  29  88 SE15      29.80S WCI  22
YANKTON        PTCLDY    30  27  86 E6        29.81R WCI  24
$$

ABBREVIATIONS USED IN REMARKS
   TC - TEMPERATURE IN CELSIUS
  WCI - WIND CHILL INDEX
   HX - HEAT INDEX
  VSB - VISIBILITY





USA.gov is the U.S. government's official web portal to all federal, state and local government web resources and services.